Погода в Дербенте

Погода в Дербенте : погода сейчас, прогноз погоды и архив. Всё, что Вы хотите узнать о погоде в Дербенте!

Поиск расширенной информации на нашем сайте:

Другие новости

Новости СМИ2

Главная страница сайта

Новости сайта

03.07.2017

Напоминаем, что на нашем специализированном сайте Метеоцентр.Азия вы можете получить высокодетализированные автоматические прогнозы погоды по пунктам России, СНГ и мира в авиационном формате (включающие направление и скорость ветра, видимость, явления погоды, количество и форму облачности, нижнюю и верхнюю границу облачности).


Погода в Дербенте - сегодня

Время (UTC), дата Ветер
(°,м/с) 
Видим.   Явления Облачность Т
(°С)
Тd
(°С)
f(%) Тe
(°С)
Pmin
(гПа)
dP
(гПа)
Po
(мм)
O2
(г/м3)
Тmin Tmax R s Состояние
почвы
12 09.12.17 150 (ЮВ) 20000 м    4/3 600 м средняя 
[Sc|Ac trans]
+7 +3 76 +6  1026.5  -0.6  772  303           
15 09.12.17 170 (Ю) 10 км    ясно 
+5.7 +2.5 80 +5  1026.4  772  304    +7.9       
18 09.12.17 180 (Ю) 10 км    ясно 
+6.5 +2.9 78 +6  1025.5  -0.9  771  303           
21 09.12.17 180 (Ю) 10 км    10/10 600 м 
[Sc]
+8.3 +3.3 71 +8  1024.7  -0.9  770  301           
00 10.12.17 310 (СЗ) 10 км    10/10 600 м 
[Sc]
+7.3 +3.5 77 +8  1023.4  -1.2  769  301           
03 10.12.17 290 (З) 10 км    9/8 600 м средняя 
[Sc|Ac trans]
+8.1 +4 75 +8  1022.7  -0.7  769  300  +5.7        влажная 
06 10.12.17 290 (З) 20000 м    8/4 600 м средняя 
[Sc|Ac trans]
+10.2 +3.9 65 +10  1022.5  -0.2  769  298           
09 10.12.17 320 (СЗ) 20000 м    ясно 
+12.9 +4.7 57 +13  1020.4  -2.1  767  294           
12 10.12.17 360 (С) 20000 м    ясно 
+11.3 +7 75 +11  1019.6  -0.8  766  295           
15 10.12.17 240 (ЮЗ) 10 км    ясно 
+7.2 +4.7 84 +8  1019.7  0.1  766  300    +13.8       
18 10.12.17 190 (Ю) 10 км    9/9 600 м 
[Sc]
+8.3 +5.4 82 +9  1018.7  -1  766  299           
21 10.12.17 160 (Ю) 10 км    ясно 
+7.6 +4.7 82 +8  1017.3  -1.3  765  299           
00 11.12.17 280 (З) 10 км    ясно 
+4.8 +2.9 87 +6  1016.4  -1  764  302           
03 11.12.17 280 (З) 10 км    ясно 
+3.7 +2.2 90 +5  1016.5  -0.9  764  303  +3.6        влажная 
06 11.12.17 300 (СЗ) 20000 м    8/3 600 м средняя 
[Sc|Ac trans]
+6.5 +3.4 81 +5  1019  2.5  766  301  +3.4         
09 11.12.17 310 (СЗ) 5-12{14}  20000 м    9/9 300 м кучево-дожд. 
[Cb cap]
+9.1 +3.4 67 +8  1023  3.9  769  299           
12 11.12.17 340 (С) 3{13}  20000 м    8/3 300 м кучево-дожд., средняя, верхняя 
[Cb cap|Ac trans|Ci fib]
+9.6 +3.8 67 +9  1026.1  3.1  771  300           
15 11.12.17 310 (СЗ) 10 км    9/9 300 м кучево-дожд. 
[Cb cap]
+8.8 +3.7 70 +9  1029  773  301    +9.8       
18 11.12.17 300 (СЗ) 10 км    9/8 600 м средняя 
[Sc|Ac trans]
+8.5 +2.6 66 +9  1030.3  1.3  774  302           
21 11.12.17 290 (З) 10 км    9/9 600 м 
[Sc]
+8 +2.2 67 +8  1029.6  -0.7  774  303           
00 12.12.17 230 (ЮЗ) 10 км    9/9 600 м 
[Sc]
+6.8 +2.6 75 +8  1029.1  -0.5  774  304           
03 12.12.17 200 (Ю) 10 км    8/0 средняя, верхняя 
[Ac trans|Ci fib]
+6.6 +2.8 77 +8  1028.6  -0.6  773  304  +5.6        влажная 
06 12.12.17 360 (С) 20000 м    8/0 средняя, верхняя 
[Ac trans|Ci fib]
+8.7 +4.3 74 +10  1029.7  1.2  774  302           
09 12.12.17 120 (ЮВ) 20000 м    8/0 средняя, верхняя 
[Ac trans|Ci fib]
+9.7 +4.6 70 +9  1027.7  -2.1  772  300           
12 12.12.17 140 (ЮВ) 20000 м    10/10 600 м 
[Sc]
+9.1 +5.3 77 +9  1027.5  -0.2  772  300           
Время (UTC), дата Ветер
(°,м/с) 
Видим.   Явления Облачность Т
(°С)
Тd
(°С)
f(%) Тe
(°С)
Pmin
(гПа)
dP
(гПа)
Po
(мм)
O2
(г/м3)
Тmin Tmax R s Состояние
почвы

Для получения пояснительной информации подведите курсор к названию столбца.

ПОГОДА в Дербенте - архив

Всё, что Вы хотите узнать о погоде в Дербенте - удобно и подробно!

Выберите нужную дату (начиная с 1 января 2015* года) и нажмите кнопку "Найти".
Будут отображены архивные сводки погоды по пункту Дербент, начиная с указанной даты.


Отображать данные в формате CSV (для использования в таблицах Excel)


Внимание! Наш архив погоды предназначен исключительно для личного некоммерческого использования в познавательных целях. Если Вам необходимы официальные справки о состоянии погоды (для производственных, юридических, коммерческих и т.п. целей), обращайтесь в органы Росгидромета.

*Примечание: данная дата относится к архиву по метеостанциям СССР (Россия, СНГ, Балтия).
Архив по метеостанциям Зарубежной Европы и Азии (кроме Китая) хранится 10 дней, по другим регионам земного шара (Китай, Африка, Америка, Австралия, Океания) - 1 день.

Дербент - район местоположения метеостанции


Название, широта, долгота, высота метеостанции:
Дербент 42.1°ш. 48.3°д. -19 м над ур. моря [Российская Федерация]

Дополнительная информация

В oтличие oт бoльшинства пoгoдных сайтoв мы публикуем пoдрoбную метеoинфoрмацию в детальнoм прoфессиoнальнoм фoрмате.

Характеристики температуры и влажнoсти вoздуха измеряются на высoте 2 м в тени вдали oт зданий и деревьев.
Скoрoсть ветра измеряется на высoте 10 м (на урoвне рoста челoвека скoрoсть ветра ниже в 1.5-2 раза). Если метеoстанция нахoдится в гoрoде или в лесу, тo скoрoсть ветра занижена на 2-4 м/с пo сравнению с oткрытым местoм. Скoрoсть ветра над акватoриями крупных рек и oзёр, а также на вершинах хoлмoв на 2-5 м/с выше, чем в oбычных услoвиях.
Атмoсфернoе давление в разных тoчках местнoсти мoжет значительнo oтличаться oт давления на метеoстанции, в зависимoсти oт услoвий рельефа (при пoдъёме на 10 м давление пoнижается примернo на 1 мм рт.ст.).